Breckenridge, USA 16 day weather forecast

Slopes altitude range 2925 m - 3915m

Number of lifts: 23 Pistes: 155km

In some cases the lift and piste totals shown are for the ski domain (e.g. Three Valleys) rather than individual resort (e.g. Courchevel)

Overview

The 16 day weather forecast is fully updated 4 times every day.

    • Wed 19 DEC 2018
    • Wed 19
    • -9C -7C
    • Thu 20 DEC 2018
    • Thu 20
    • -15C -12C
    • Fri 21 DEC 2018
    • Fri 21
    • -10C -9C
    • Sat 22 DEC 2018
    • Sat 22
    • -14C -12C
    • Sun 23 DEC 2018
    • Sun 23
    • -16C -11C
    • Mon 24 DEC 2018
    • Mon 24
    • -12C -10C
    • Tue 25 DEC 2018
    • Tue 25
    • -11C -10C
    • Wed 26 DEC 2018
    • Wed 26
    • -10C -7C
    • Thu 27 DEC 2018
    • Thu 27
    • -16C -14C
    • Fri 28 DEC 2018
    • Fri 28
    • -12C -11C
    • Sat 29 DEC 2018
    • Sat 29
    • -18C -9C
    • Sun 30 DEC 2018
    • Sun 30
    • -18C -8C
    • Mon 31 DEC 2018
    • Mon 31
    • -13C -10C
    • Tue 01 JAN 2019
    • Tue 01
    • -16C -7C
    • Wed 02 JAN 2019
    • Wed 02
    • -9C -7C
    • Thu 03 JAN 2019
    • Thu 03
    • -11C -1C

Date:

Time Type 0°C level Temp Chill Snow Cloud Speed Gust Dir Press
3:00 1784m -10°C -10_7 0cm 44% 7mph 11mph 1019mB
6:00 1878m -10°C -10_9 0cm 37% 9mph 14mph 1020mB
9:00 2056m -9°C -9_9 0cm 32% 9mph 26mph 1020mB
12:00 2128m -7°C -7_6 1cm 54% 6mph 35mph 1020mB
15:00 2103m -8°C -8_16 1cm 99% 16mph 47mph 1021mB
18:00 2044m -8°C -8_25 2cm 99% 25mph 51mph 1020mB
21:00 1972m -9°C -9_23 1cm 95% 23mph 53mph 1018mB
0:00 1737m -10°C -10_16 1cm 96% 16mph 51mph 1022mB
3:00 1628m -11°C -11_13 1cm 96% 13mph 42mph 1026mB
6:00 1439m -12°C -12_9 1cm 88% 9mph 20mph 1030mB
9:00 1138m -14°C -14_8 0cm 20% 8mph 12mph 1031mB
12:00 1026m -12°C -12_7 0cm 15% 7mph 9mph 1031mB
15:00 1304m -13°C -13_7 0cm 3% 7mph 9mph 1031mB
18:00 2707m -4°C -4_9 0cm 2% 9mph 20mph 1024mB
21:00 2881m -4°C -4_9 0cm 0% 9mph 26mph 1020mB
0:00 1810m -10°C -10_6 0cm 0% 6mph 7mph 1022mB
3:00 1582m -11°C -11_6 0cm 0% 6mph 7mph 1023mB
6:00 1709m -11°C -11_6 0cm 0% 6mph 7mph 1022mB
9:00 1800m -10°C -10_6 0cm 0% 6mph 7mph 1019mB
12:00 1891m -9°C -9_6 0cm 4% 6mph 7mph 1017mB
15:00 2140m -8°C -8_6 0cm 29% 6mph 7mph 1015mB
18:00 3240m 0°C 0_14 0cm 27% 14mph 38mph 1009mB
21:00 2865m -3°C -3_18 0cm 28% 18mph 44mph 1007mB
0:00 2211m -7°C -7_15 1cm 57% 15mph 44mph 1011mB
3:00 2049m -8°C -8_8 1cm 88% 8mph 29mph 1017mB
6:00 1528m -12°C -12_6 1cm 77% 6mph 7mph 1022mB
9:00 1215m -14°C -14_6 0cm 19% 6mph 7mph 1024mB
12:00 1153m -12°C -12_5 0cm 10% 5mph 6mph 1024mB
15:00 1378m -12°C -12_4 0cm 1% 4mph 5mph 1024mB
18:00 2764m -3°C -3_5 0cm 1% 5mph 20mph 1017mB
21:00 2686m -4°C -4_7 0cm 33% 7mph 26mph 1014mB
0:00 2109m -8°C -8_3 1cm 65% 3mph 4mph 1018mB
3:00 1818m -10°C -10_9 1cm 96% 9mph 28mph 1022mB
6:00 1565m -11°C -11_9 1cm 89% 9mph 26mph 1027mB
9:00 1249m -13°C -13_7 1cm 93% 7mph 28mph 1030mB
12:00 788m -11°C -11_6 1cm 72% 6mph 8mph 1033mB
15:00 799m -16°C -16_6 0cm 16% 6mph 8mph 1035mB
18:00 2239m -7°C -7_8 0cm 9% 8mph 25mph 1027mB
21:00 2559m -7°C -7_9 0cm 3% 9mph 28mph 1020mB
0:00 1556m -11°C -11_5 0cm 10% 5mph 6mph 1023mB
3:00 1298m -13°C -13_5 0cm 2% 5mph 6mph 1025mB
6:00 1391m -13°C -13_6 0cm 45% 6mph 7mph 1023mB
9:00 1681m -12°C -12_8 0cm 89% 8mph 12mph 1021mB
12:00 1628m -10°C -10_8 0cm 87% 8mph 13mph 1020mB
15:00 1510m -11°C -11_7 0cm 14% 7mph 10mph 1021mB
18:00 2628m -4°C -4_7 0cm 35% 7mph 21mph 1016mB
21:00 2715m -4°C -4_5 1cm 84% 5mph 11mph 1012mB
0:00 1910m -9°C -9_3 0cm 63% 3mph 3mph 1013mB
3:00 1661m -11°C -11_4 0cm 8% 4mph 5mph 1014mB
6:00 1722m -11°C -11_5 0cm 40% 5mph 6mph 1012mB
9:00 1611m -11°C -11_5 0cm 68% 5mph 7mph 1009mB
12:00 1664m -10°C -10_5 0cm 58% 5mph 6mph 1006mB
15:00 1546m -10°C -10_5 0cm 34% 5mph 6mph 1005mB
18:00 2500m -5°C -5_9 0cm 26% 9mph 14mph 999mB
21:00 2328m -6°C -6_6 1cm 97% 6mph 10mph 997mB
0:00 1960m -9°C -9_1 3cm 98% 1mph 3mph 1000mB
3:00 1871m -9°C -9_3 3cm 100% 3mph 5mph 1002mB
6:00 1708m -10°C -10_5 5cm 100% 5mph 10mph 1004mB
9:00 1343m -9°C -9_6 1cm 98% 6mph 11mph 1007mB
12:00 1087m -7°C -7_5 2cm 97% 5mph 10mph 1010mB
15:00 957m -11°C -11_5 0cm 73% 5mph 10mph 1013mB
18:00 1364m -9°C -9_8 1cm 78% 8mph 17mph 1010mB
21:00 1406m -9°C -9_10 1cm 95% 10mph 20mph 1007mB
0:00 824m -12°C -12_5 1cm 83% 5mph 8mph 1011mB
3:00 488m -14°C -14_2 0cm 57% 2mph 2mph 1015mB
6:00 484m -15°C -15_2 0cm 62% 2mph 2mph 1017mB
9:00 421m -15°C -15_3 1cm 71% 3mph 4mph 1018mB
12:00 282m -14°C -14_4 0cm 43% 4mph 5mph 1019mB
15:00 497m -14°C -14_4 0cm 50% 4mph 4mph 1020mB
18:00 1878m -5°C -5_2 0cm 54% 2mph 5mph 1016mB
21:00 2023m -5°C -5_4 0cm 72% 4mph 5mph 1013mB
0:00 1325m -9°C -9_5 0cm 80% 5mph 6mph 1016mB
3:00 1065m -11°C -11_6 1cm 94% 6mph 9mph 1018mB
6:00 948m -11°C -11_7 0cm 88% 7mph 11mph 1020mB
9:00 940m -12°C -12_8 0cm 73% 8mph 14mph 1020mB
12:00 962m -11°C -11_10 0cm 82% 10mph 19mph 1019mB
15:00 999m -11°C -11_10 0cm 95% 10mph 21mph 1020mB
18:00 1523m -8°C -8_11 0cm 96% 11mph 24mph 1020mB
Morning 0.15625mm 0 420m -16°C -16_5 1cm 77% 5mph 6mph 1025mB
Afternoon 0.385417mm 0 1531m -9°C -9_7 0cm 25% 7mph 10mph 1020mB
Morning 0.333333mm 0 183m -18°C -18_6 0cm 9% 6mph 8mph 1030mB
Afternoon 0.015625mm 0 1741m -8°C -8_10 0cm 11% 10mph 18mph 1021mB
Morning 0.0260417mm 0 1144m -11°C -11_10 0cm 53% 10mph 23mph 1023mB
Afternoon 0.229167mm 0 1418m -10°C -10_8 0cm 40% 8mph 14mph 1025mB
Morning 0.0572917mm 0 437m -16°C -16_3 0cm 41% 3mph 4mph 1028mB
Afternoon 0.00520833mm 0 1855m -7°C -7_9 0cm 84% 9mph 16mph 1019mB
Morning 0mm 0.0625 1584m -11°C -11_10 0cm 77% 10mph 26mph 1016mB
Afternoon 0mm 0.0625 1717m -7°C -7_11 1cm 85% 11mph 20mph 1023mB
Morning 0mm 0 1341m -11°C -11_7 0cm 37% 7mph 12mph 1027mB
Afternoon 0.00520833mm 0 2743m -1°C -1_12 0cm 51% 12mph 29mph 1017mB

16 day outlook at a glance

Forecast issued: 19/12/2018 03:16:11

Chat

Your comments and questions. In a resort? Let us know what it's like!


Characters left 250

For terms and conditions see Readers Comments on the Cookie and privacy policy page.